OK1KZE-6 Weather Reports


Display with metric or nautical units.
time (UTC)temp
F
wind
direction
speed
MPH
gust
MPH
rain 1hr
in
rain 24hr
in
rain mn
in
humidity
%
barometer
mb
20260902110507 70 311 4.0 6.0 0.00 0.00 0.00 51 1023.7
20260902110008 69 290 11.0 14.0 0.00 0.00 0.00 53 1023.8
20260902105507 69 274 6.0 7.0 0.00 0.00 0.00 53 1023.7
20260902105007 70 269 4.0 4.0 0.00 0.00 0.00 54 1023.7
20260902104507 68 295 4.0 8.0 0.00 0.00 0.00 53 1023.7
20260902104008 69 292 8.0 10.0 0.00 0.00 0.00 54 1023.7
20260902103507 70 329 2.0 5.0 0.00 0.00 0.00 52 1023.7
20260902103008 69 310 4.0 4.0 0.00 0.00 0.00 54 1023.8
20260902102507 68 294 8.0 10.0 0.00 0.00 0.00 56 1024.1
20260902102007 68 280 4.0 6.0 0.00 0.00 0.00 56 1023.9
20260902101508 69 277 7.0 9.0 0.00 0.00 0.00 56 1023.9
20260902101007 69 299 10.0 11.0 0.00 0.00 0.00 56 1023.9
20260902100507 69 287 10.0 12.0 0.00 0.00 0.00 56 1024.0
20260902100008 69 313 2.0 3.0 0.00 0.00 0.00 60 1024.0
20260902095508 68 273 2.0 2.0 0.00 0.00 0.00 59 1024.0
20260902095007 68 269 3.0 3.0 0.00 0.00 0.00 55 1023.9
20260902094507 68 148 2.0 2.0 0.00 0.00 0.00 58 1023.9
20260902094008 69 301 0.0 2.0 0.00 0.00 0.00 57 1024.0
20260902093508 69 251 3.0 4.0 0.00 0.00 0.00 57 1024.0
20260902093008 68 241 6.0 6.0 0.00 0.00 0.00 59 1023.9
20260902092509 67 216 5.0 6.0 0.00 0.00 0.00 59 1024.1
20260902092007 67 266 10.0 10.0 0.00 0.00 0.00 57 1024.1
20260902091508 68 261 8.0 8.0 0.00 0.00 0.00 59 1024.1
20260902091008 67 234 2.0 4.0 0.00 0.00 0.00 62 1023.7
20260902090507 66 243 4.0 4.0 0.00 0.00 0.00 64 1023.8
20260902090008 66 314 2.0 2.0 0.00 0.00 0.00 65 1023.9
20260902085507 66 251 0.0 2.0 0.00 0.00 0.00 65 1023.9
20260902085008 66 305 2.0 3.0 0.00 0.00 0.00 65 1023.8
20260902084507 66 327 0.0 1.0 0.00 0.00 0.00 65 1023.7
20260902084007 65 357 1.0 1.0 0.00 0.00 0.00 66 1023.8
20260902083508 65 327 2.0 3.0 0.00 0.00 0.00 66 1023.8
20260902083008 65 293 2.0 2.0 0.00 0.00 0.00 67 1024.0
20260902082507 65 335 1.0 1.0 0.00 0.00 0.00 67 1023.8
20260902082008 65 359 2.0 3.0 0.00 0.00 0.00 67 1023.6
20260902081508 64 287 1.0 2.0 0.00 0.00 0.00 69 1023.9
20260902081008 63 296 4.0 4.0 0.00 0.00 0.00 70 1023.7
20260902080507 63 283 3.0 4.0 0.00 0.00 0.00 69 1023.9
20260902080008 62 248 2.0 3.0 0.00 0.00 0.00 70 1023.8
20260902075509 62 232 3.0 5.0 0.00 0.00 0.00 71 1023.8
20260902075008 62 253 4.0 5.0 0.00 0.00 0.00 70 1023.8
20260902074508 62 252 4.0 5.0 0.00 0.00 0.00 70 1023.7
20260902074010 61 253 5.0 6.0 0.00 0.00 0.00 71 1023.6
20260902073508 61 238 4.0 5.0 0.00 0.00 0.00 71 1023.7
20260902073008 61 268 3.0 4.0 0.00 0.00 0.00 70 1023.8
20260902072508 60 256 5.0 5.0 0.00 0.00 0.00 72 1023.6
20260902072008 60 245 6.0 7.0 0.00 0.00 0.00 73 1023.4
20260902071508 60 249 5.0 7.0 0.00 0.00 0.00 73 1023.6
20260902071008 59 255 8.0 11.0 0.00 0.00 0.00 74 1023.7
20260902070508 59 237 7.0 8.0 0.00 0.00 0.00 73 1023.7
20260902070008 59 259 8.0 11.0 0.00 0.00 0.00 72 1023.6
20260902065508 59 255 7.0 9.0 0.00 0.00 0.00 74 1023.5
20260902065008 59 251 7.0 8.0 0.00 0.00 0.00 73 1023.5
20260902064508 59 253 7.0 8.0 0.00 0.00 0.00 74 1023.5
20260902064007 59 250 4.0 5.0 0.00 0.00 0.00 74 1023.2
20260902063508 59 235 6.0 8.0 0.00 0.00 0.00 75 1023.5
20260902063007 58 249 7.0 10.0 0.00 0.00 0.00 75 1023.6
20260902062508 58 231 8.0 8.0 0.00 0.00 0.00 77 1023.4
20260902062007 58 251 9.0 9.0 0.00 0.00 0.00 76 1023.3
20260902061507 58 247 8.0 8.0 0.00 0.00 0.00 76 1023.2
20260902061006 58 256 10.0 10.0 0.00 0.00 0.00 75 1023.3
20260902060508 58 241 5.0 7.0 0.00 0.00 0.00 75 1023.3
20260902060008 58 249 8.0 9.0 0.00 0.00 0.00 74 1023.4
20260902055508 58 244 8.0 9.0 0.00 0.00 0.00 74 1023.3
20260902055006 57 249 9.0 10.0 0.00 0.00 0.00 75 1023.5
20260902054508 57 230 8.0 9.0 0.00 0.00 0.00 77 1023.3
20260902054008 56 244 8.0 8.0 0.00 0.00 0.00 79 1023.2
20260902053508 56 236 8.0 8.0 0.00 0.00 0.00 79 1023.2
20260902053008 56 233 9.0 9.0 0.00 0.00 0.00 78 1023.1
20260902052507 57 230 9.0 10.0 0.00 0.00 0.00 79 1023.1
20260902052007 57 228 7.0 9.0 0.00 0.00 0.00 78 1023.0
20260902051508 57 216 9.0 10.0 0.00 0.00 0.00 77 1022.8
20260902051007 57 220 8.0 8.0 0.00 0.00 0.00 77 1023.1
20260902050507 57 221 8.0 10.0 0.00 0.00 0.00 76 1023.0
20260902050009 57 226 8.0 8.0 0.00 0.00 0.00 76 1022.6
20260902045507 57 240 9.0 10.0 0.00 0.00 0.00 77 1022.8
20260902045007 57 236 9.0 10.0 0.00 0.00 0.00 76 1022.7
20260902044508 57 213 7.0 9.0 0.00 0.00 0.00 77 1022.6
20260902044008 57 205 9.0 10.0 0.00 0.00 0.00 78 1022.5
20260902043507 57 210 7.0 8.0 0.00 0.00 0.00 77 1022.6
20260902043008 57 210 7.0 8.0 0.00 0.00 0.00 77 1022.6
20260902042508 56 209 6.0 8.0 0.00 0.00 0.00 78 1022.6
20260902042007 56 223 10.0 10.0 0.00 0.00 0.00 77 1022.3
20260902041507 56 224 7.0 11.0 0.00 0.00 0.00 78 1022.4
20260902041007 56 225 10.0 13.0 0.00 0.00 0.00 78 1022.6
20260902040508 57 233 9.0 12.0 0.00 0.00 0.00 76 1022.6
20260902040007 57 231 11.0 12.0 0.00 0.00 0.00 77 1022.4
20260902035506 57 229 10.0 11.0 0.00 0.00 0.00 77 1022.5
20260902035007 57 233 10.0 11.0 0.00 0.00 0.00 75 1022.6
20260902034508 57 241 7.0 9.0 0.00 0.00 0.00 75 1022.7
20260902034008 57 242 9.0 11.0 0.00 0.00 0.00 76 1022.6
20260902033507 58 245 9.0 11.0 0.00 0.00 0.00 73 1022.6
20260902033008 57 238 11.0 12.0 0.00 0.00 0.00 75 1022.7
20260902032508 56 236 12.0 13.0 0.00 0.00 0.00 78 1022.6
20260902032007 56 239 10.0 12.0 0.00 0.00 0.00 78 1022.9
20260902031508 56 242 12.0 13.0 0.00 0.00 0.00 77 1022.7
20260902031008 57 250 11.0 12.0 0.00 0.00 0.00 75 1022.6
20260902030507 57 245 12.0 12.0 0.00 0.00 0.00 76 1022.8
20260902030008 57 256 14.0 16.0 0.00 0.00 0.00 75 1022.9
20260902025507 58 253 13.0 14.0 0.00 0.00 0.00 74 1022.7
20260902025008 57 248 13.0 14.0 0.00 0.00 0.00 75 1022.8
20260902024507 57 243 11.0 12.0 0.00 0.00 0.00 75 1022.8
20260902024008 57 245 13.0 14.0 0.00 0.00 0.00 75 1022.8
20260902023507 57 245 13.0 15.0 0.00 0.00 0.00 75 1022.6
20260902023008 57 243 14.0 15.0 0.00 0.00 0.00 75 1022.8
20260902022507 58 242 12.0 13.0 0.00 0.00 0.00 74 1022.8
20260902022007 57 242 10.0 11.0 0.00 0.00 0.00 75 1023.0
20260902021507 57 238 12.0 12.0 0.00 0.00 0.00 75 1022.9
20260902021007 57 244 11.0 12.0 0.00 0.00 0.00 76 1022.8
20260902020507 58 247 12.0 12.0 0.00 0.00 0.00 74 1022.8
20260902020007 58 239 10.0 11.0 0.00 0.00 0.00 73 1022.8
20260902015508 58 246 12.0 13.0 0.00 0.00 0.00 73 1022.8
20260902015007 57 249 10.0 11.0 0.00 0.00 0.00 74 1022.6
20260902014508 58 248 11.0 12.0 0.00 0.00 0.00 72 1022.8
20260902014007 59 256 10.0 10.0 0.00 0.00 0.00 71 1022.8
20260902013507 59 243 10.0 13.0 0.00 0.00 0.00 70 1022.7
20260902013008 59 233 11.0 13.0 0.00 0.00 0.00 70 1022.9
20260902012507 59 234 12.0 15.0 0.00 0.00 0.00 70 1022.6
20260902012008 59 233 11.0 12.0 0.00 0.00 0.00 70 1022.6
20260902011508 59 222 10.0 13.0 0.00 0.00 0.00 69 1022.4
20260902011007 59 220 10.0 12.0 0.00 0.00 0.00 70 1022.8
20260902010508 59 230 11.0 12.0 0.00 0.00 0.00 69 1022.5
20260902010008 59 230 11.0 12.0 0.00 0.00 0.00 69 1022.7
20260902005507 60 231 12.0 14.0 0.00 0.00 0.00 68 1022.6
20260902005008 60 230 12.0 13.0 0.00 0.00 0.00 68 1022.6
20260902004507 59 239 10.0 13.0 0.00 0.00 0.00 69 1022.7
20260902004008 59 228 12.0 13.0 0.00 0.00 0.00 69 1022.6
20260902003507 59 239 13.0 13.0 0.00 0.00 0.00 70 1022.7
20260902003008 60 246 12.0 13.0 0.00 0.00 0.00 68 1022.7
20260902002507 60 244 11.0 12.0 0.00 0.00 0.00 68 1022.7
20260902002007 60 241 12.0 13.0 0.00 0.00 0.00 68 1022.6
20260902001508 61 242 12.0 13.0 0.00 0.00 0.00 65 1022.5
20260902001007 61 252 11.0 12.0 0.00 0.00 0.00 66 1022.7
20260902000508 60 249 12.0 13.0 0.00 0.00 0.00 68 1022.6
20260902000008 60 248 11.0 14.0 0.00 0.00 0.00 67 1022.7
20260901235508 60 249 11.0 13.0 0.00 0.00 0.00 68 1022.6
20260901235008 60 251 13.0 13.0 0.00 0.00 0.00 67 1022.8
20260901234507 60 247 10.0 11.0 0.00 0.00 0.00 66 1022.6
20260901234009 61 247 10.0 11.0 0.00 0.00 0.00 66 1023.0
20260901233508 61 244 9.0 10.0 0.00 0.00 0.00 65 1022.8
20260901233007 61 227 8.0 10.0 0.00 0.00 0.00 64 1022.9
20260901232508 61 241 10.0 11.0 0.00 0.00 0.00 63 1022.6
20260901232007 61 237 10.0 11.0 0.00 0.00 0.00 65 1022.8
20260901231507 62 241 11.0 11.0 0.00 0.00 0.00 63 1022.8
20260901231008 61 238 11.0 12.0 0.00 0.00 0.00 64 1022.9
20260901230507 62 244 11.0 12.0 0.00 0.00 0.00 64 1022.9
20260901230008 62 231 11.0 12.0 0.00 0.00 0.00 63 1022.9
20260901225509 62 235 10.0 12.0 0.00 0.00 0.00 63 1022.9
20260901225008 63 247 10.0 11.0 0.00 0.00 0.00 61 1022.9
20260901224507 63 246 11.0 12.0 0.00 0.00 0.00 60 1023.0
20260901224008 63 243 11.0 11.0 0.00 0.00 0.00 61 1023.0
20260901223508 63 244 9.0 10.0 0.00 0.00 0.00 60 1022.9
20260901223008 63 244 9.0 10.0 0.00 0.00 0.00 61 1023.1
20260901222507 63 243 9.0 10.0 0.00 0.00 0.00 60 1023.1
20260901222008 63 244 10.0 11.0 0.00 0.00 0.00 59 1023.1
20260901221507 64 243 12.0 12.0 0.00 0.00 0.00 59 1023.2
20260901221007 64 242 12.0 12.0 0.00 0.00 0.00 59 1023.1
20260901220508 64 241 8.0 12.0 0.00 0.00 0.00 59 1023.0
20260901220008 63 245 10.0 10.0 0.00 0.00 0.00 59 1023.0
20260901215508 63 232 10.0 11.0 0.00 0.00 0.00 60 1023.1
20260901215008 63 233 10.0 11.0 0.00 0.00 0.00 60 1023.0
20260901214508 63 237 8.0 9.0 0.00 0.00 0.00 60 1023.0
20260901214008 64 234 10.0 12.0 0.00 0.00 0.00 59 1023.1
20260901213507 64 233 10.0 11.0 0.00 0.00 0.00 59 1022.9
20260901213008 64 232 10.0 11.0 0.00 0.00 0.00 59 1023.0
20260901212507 64 233 9.0 10.0 0.00 0.00 0.00 59 1022.9
20260901212007 64 233 9.0 11.0 0.00 0.00 0.00 59 1022.9
20260901211508 64 234 7.0 9.0 0.00 0.00 0.00 59 1023.0
20260901211007 64 230 9.0 9.0 0.00 0.00 0.00 58 1022.9
20260901210508 64 227 7.0 9.0 0.00 0.00 0.00 58 1023.0
20260901210007 64 221 8.0 9.0 0.00 0.00 0.00 58 1022.9
20260901205507 64 230 9.0 10.0 0.00 0.00 0.00 58 1022.9
20260901205008 64 236 12.0 12.0 0.00 0.00 0.00 59 1022.7
20260901204507 64 243 7.0 9.0 0.00 0.00 0.00 60 1022.9
20260901204008 64 242 10.0 10.0 0.00 0.00 0.00 60 1022.6
20260901203508 64 250 9.0 10.0 0.00 0.00 0.00 59 1022.8
20260901203009 64 257 6.0 8.0 0.00 0.00 0.00 59 1022.8
20260901202507 65 254 10.0 11.0 0.00 0.00 0.00 57 1022.6
20260901202008 65 249 9.0 10.0 0.00 0.00 0.00 58 1022.9
20260901201507 65 253 12.0 13.0 0.00 0.00 0.00 58 1022.8
20260901201008 64 258 12.0 13.0 0.00 0.00 0.00 59 1023.0
20260901200508 65 255 10.0 11.0 0.00 0.00 0.00 58 1022.8
20260901200008 65 253 12.0 13.0 0.00 0.00 0.00 58 1022.7
20260901195508 65 254 10.0 11.0 0.00 0.00 0.00 58 1022.8
20260901195007 65 256 10.0 12.0 0.00 0.00 0.00 57 1022.7
20260901194508 65 254 9.0 11.0 0.00 0.00 0.00 59 1022.7
20260901194007 65 257 10.0 11.0 0.00 0.00 0.00 59 1022.9
20260901193507 65 258 9.0 10.0 0.00 0.00 0.00 58 1022.8
20260901193007 66 256 8.0 12.0 0.00 0.00 0.00 58 1022.6
20260901192508 66 252 10.0 11.0 0.00 0.00 0.00 57 1022.7
20260901192007 66 256 10.0 10.0 0.00 0.00 0.00 58 1022.8
20260901191507 66 259 10.0 10.0 0.00 0.00 0.00 56 1022.5
20260901191007 66 253 9.0 10.0 0.00 0.00 0.00 56 1022.6
20260901190507 67 262 8.0 9.0 0.00 0.00 0.00 55 1022.7
20260901190008 67 255 8.0 8.0 0.00 0.00 0.00 55 1022.6
20260901185508 67 258 7.0 9.0 0.00 0.00 0.00 54 1022.6
20260901185007 67 243 7.0 8.0 0.00 0.00 0.00 54 1022.5
20260901184508 68 250 7.0 8.0 0.00 0.00 0.00 53 1022.6
20260901184008 68 248 9.0 11.0 0.00 0.00 0.00 53 1022.5
20260901183508 68 250 9.0 10.0 0.00 0.00 0.00 51 1022.3
20260901183007 68 249 6.0 8.0 0.00 0.00 0.00 51 1022.2
20260901182507 68 238 7.0 8.0 0.00 0.00 0.00 50 1022.3
20260901182007 68 243 8.0 9.0 0.00 0.00 0.00 50 1022.2
20260901181508 69 240 9.0 9.0 0.00 0.00 0.00 49 1022.2
20260901181008 69 233 8.0 8.0 0.00 0.00 0.00 49 1022.2
20260901180508 69 244 8.0 8.0 0.00 0.00 0.00 49 1022.1
20260901180007 69 241 7.0 8.0 0.00 0.00 0.00 49 1022.0
20260901175508 69 227 8.0 8.0 0.00 0.00 0.00 49 1022.1
20260901175009 69 238 8.0 8.0 0.00 0.00 0.00 49 1022.2
20260901174507 69 242 7.0 9.0 0.00 0.00 0.00 50 1022.1
20260901174008 69 246 8.0 8.0 0.00 0.00 0.00 50 1022.3
20260901173508 69 239 6.0 8.0 0.00 0.00 0.00 50 1022.2
20260901173008 69 237 7.0 7.0 0.00 0.00 0.00 50 1022.1
20260901172507 69 228 8.0 8.0 0.00 0.00 0.00 50 1022.1
20260901172007 69 227 7.0 8.0 0.00 0.00 0.00 50 1022.3
20260901171507 69 232 7.0 9.0 0.00 0.00 0.00 51 1022.0
20260901171007 69 232 4.0 6.0 0.00 0.00 0.00 51 1022.1
20260901170508 69 222 4.0 5.0 0.00 0.00 0.00 51 1022.3
20260901170007 70 231 4.0 4.0 0.00 0.00 0.00 50 1022.1
20260901165507 70 224 4.0 4.0 0.00 0.00 0.00 50 1022.3
20260901165007 70 225 4.0 5.0 0.00 0.00 0.00 49 1022.2
20260901164507 69 248 4.0 6.0 0.00 0.00 0.00 51 1022.4
20260901164008 69 228 6.0 6.0 0.00 0.00 0.00 51 1022.4
20260901163507 30 0 0.0 0.0 0.00 0.00 0.00 100 1022.4
20260901163007 69 245 4.0 6.0 0.00 0.00 0.00 50 1022.4
20260901162507 69 245 4.0 6.0 0.00 0.00 0.00 50 1022.1
20260901162007 69 232 5.0 6.0 0.00 0.00 0.00 51 1022.2
20260901161508 30 0 0.0 0.0 0.00 0.00 0.00 100 1022.3
20260901161007 71 210 5.0 6.0 0.00 0.00 0.00 49 1022.5
20260901160508 71 210 5.0 6.0 0.00 0.00 0.00 49 1022.4
20260901160007 71 223 4.0 5.0 0.00 0.00 0.00 49 1022.2
20260901155508 71 193 3.0 4.0 0.00 0.00 0.00 49 1022.3
20260901155007 71 209 6.0 6.0 0.00 0.00 0.00 48 1022.4
20260901154507 71 280 7.0 8.0 0.00 0.00 0.00 48 1022.6
20260901154008 71 285 9.0 10.0 0.00 0.00 0.00 48 1022.5
20260901153507 72 244 4.0 4.0 0.00 0.00 0.00 51 1022.4
20260901153008 71 210 4.0 7.0 0.00 0.00 0.00 49 1022.5
20260901152508 71 250 6.0 6.0 0.00 0.00 0.00 48 1022.6
20260901152007 70 229 5.0 6.0 0.00 0.00 0.00 49 1022.6
20260901151507 70 283 5.0 5.0 0.00 0.00 0.00 50 1022.5
20260901151009 71 249 9.0 9.0 0.00 0.00 0.00 49 1022.7
20260901150507 70 269 3.0 4.0 0.00 0.00 0.00 49 1022.4
20260901150008 70 240 4.0 7.0 0.00 0.00 0.00 49 1022.5
20260901145507 71 211 3.0 3.0 0.00 0.00 0.00 49 1022.6
20260901145007 70 252 6.0 8.0 0.00 0.00 0.00 49 1022.5
20260901144507 72 281 7.0 8.0 0.00 0.00 0.00 48 1022.6
20260901144007 72 276 2.0 3.0 0.00 0.00 0.00 48 1022.6
20260901143508 71 230 3.0 4.0 0.00 0.00 0.00 50 1022.6
20260901143008 70 286 9.0 9.0 0.00 0.00 0.00 49 1022.8
20260901142507 71 289 8.0 10.0 0.00 0.00 0.00 48 1022.6
20260901142007 71 313 3.0 4.0 0.00 0.00 0.00 48 1022.7
20260901141507 70 282 5.0 5.0 0.00 0.00 0.00 52 1022.5
20260901141008 69 277 8.0 8.0 0.00 0.00 0.00 52 1022.7
20260901140508 69 259 3.0 3.0 0.00 0.00 0.00 53 1022.8
20260901140008 69 106 1.0 1.0 0.00 0.00 0.00 50 1022.9
20260901135507 68 289 6.0 6.0 0.00 0.00 0.00 54 1022.8
20260901135007 68 289 6.0 8.0 0.00 0.00 0.00 54 1023.0
20260901134507 68 288 9.0 12.0 0.00 0.00 0.00 54 1023.0
20260901134007 68 299 10.0 11.0 0.00 0.00 0.00 53 1023.0
20260901133507 68 307 3.0 5.0 0.00 0.00 0.00 53 1022.8
20260901133007 68 274 7.0 9.0 0.00 0.00 0.00 54 1022.8
20260901132508 68 284 15.0 16.0 0.00 0.00 0.00 52 1022.9
20260901132007 69 290 9.0 10.0 0.00 0.00 0.00 51 1023.1
20260901131508 69 304 8.0 10.0 0.00 0.00 0.00 53 1023.0
20260901131007 68 272 10.0 11.0 0.00 0.00 0.00 51 1023.0
20260901130508 69 260 16.0 18.0 0.00 0.00 0.00 51 1023.2
20260901130008 68 296 8.0 11.0 0.00 0.00 0.00 54 1023.2
20260901125508 69 244 10.0 11.0 0.00 0.00 0.00 53 1023.2
20260901125007 69 285 5.0 10.0 0.00 0.00 0.00 53 1023.3
20260901124507 69 285 15.0 16.0 0.00 0.00 0.00 52 1023.0
20260901124007 70 281 11.0 11.0 0.00 0.00 0.00 54 1023.1
20260901123509 68 263 13.0 17.0 0.00 0.00 0.00 55 1023.2
20260901123009 68 288 12.0 13.0 0.00 0.00 0.00 55 1023.1
20260901122507 68 289 13.0 16.0 0.00 0.00 0.00 54 1023.3
20260901122008 30 0 0.0 0.0 0.00 0.00 0.00 100 1023.1
20260901121507 68 260 7.0 8.0 0.00 0.00 0.00 57 1023.1
20260901121007 68 260 7.0 8.0 0.00 0.00 0.00 57 1023.4
20260901120507 68 283 14.0 16.0 0.00 0.00 0.00 56 1023.3
20260901120007 67 253 10.0 11.0 0.00 0.00 0.00 56 1023.2
20260901115508 67 290 11.0 12.0 0.00 0.00 0.00 57 1023.2
20260901115007 67 290 11.0 12.0 0.00 0.00 0.00 57 1023.4
20260901114507 67 288 8.0 12.0 0.00 0.00 0.00 58 1023.5
20260901114008 67 258 9.0 12.0 0.00 0.00 0.00 59 1023.4
20260901113507 67 245 9.0 10.0 0.00 0.00 0.00 59 1023.3
20260901113007 66 264 11.0 13.0 0.00 0.00 0.00 60 1023.3
20260901112507 66 264 11.0 13.0 0.00 0.00 0.00 60 1023.4
20260901112007 30 0 0.0 0.0 0.00 0.00 0.00 100 1023.3
20260901111507 66 293 15.0 17.0 0.00 0.00 0.00 60 1023.2
20260901111008 66 293 15.0 17.0 0.00 0.00 0.00 60 1023.2